CDT,Max TemperatureF,Mean TemperatureF,Min TemperatureF,Max Dew PointF,MeanDew PointF,Min DewpointF,Max Humidity, Mean Humidity, Min Humidity, Max Sea Level PressureIn, Mean Sea Level PressureIn, Min Sea Level PressureIn, Max VisibilityMiles, Mean VisibilityMiles, Min VisibilityMiles, Max Wind SpeedMPH, Mean Wind SpeedMPH, Max Gust SpeedMPH,PrecipitationIn, CloudCover, Events, WindDirDegrees
2013-7-1,80,66,53,55,51,46,94,60,30,30.17,30.13,30.09,10,10,7,10,3,18,0.00,2,,60
2013-7-2,73,62,51,52,46,41,82,56,31,30.18,30.14,30.10,10,10,10,10,5,17,0.00,1,,63
2013-7-3,71,65,59,61,55,48,94,73,53,30.12,30.08,30.03,10,10,7,8,1,,0.00,7,Rain,99
2013-7-4,82,70,59,63,59,54,100,70,39,30.07,30.03,29.99,10,8,0,12,3,18,0.00,3,Fog,206
2013-7-5,86,72,57,63,59,54,100,65,33,30.05,30.00,29.95,10,10,5,15,4,22,0.00,1,,205
2013-7-6,87,74,60,64,62,59,94,65,38,30.01,29.98,29.93,10,10,7,13,6,16,0.00,1,,202
2013-7-7,82,74,66,72,68,63,94,79,62,29.96,29.92,29.88,10,9,7,12,3,,0.00,1,Rain,189
2013-7-8,82,75,68,72,68,64,100,82,54,30.00,29.93,29.86,10,9,2,14,4,24,1.71,5,Rain,92
2013-7-9,80,72,64,73,68,64,100,86,65,30.01,29.89,29.75,10,7,0,15,4,18,0.15,4,Fog-Rain,196
2013-7-10,77,68,59,68,56,50,100,64,39,30.03,29.91,29.79,10,10,10,17,8,23,0.00,2,,316
2013-7-11,78,66,55,59,54,48,94,65,34,30.13,30.09,30.03,10,10,10,7,2,,0.00,0,,113
2013-7-12,80,66,53,61,56,52,100,68,39,30.16,30.11,30.07,10,10,10,10,3,,0.00,0,,184
2013-7-13,82,70,59,64,59,54,94,69,39,30.18,30.13,30.09,10,10,10,13,4,20,0.00,0,,188
2013-7-14,86,70,55,68,62,55,100,73,43,30.24,30.21,30.17,10,10,2,9,2,,0.00,1,,177
2013-7-15,87,74,62,70,67,63,100,74,46,30.30,30.26,30.23,10,9,1,8,2,,0.00,1,,169
2013-7-16,89,79,69,73,71,68,100,80,52,30.28,30.24,30.20,10,9,1,10,3,,0.00,1,,211
2013-7-17,93,83,73,73,70,64,94,68,38,30.27,30.21,30.14,10,10,10,15,4,20,0.00,2,,265
2013-7-18,93,82,71,72,69,64,94,65,38,30.14,29.99,29.83,10,10,2,18,5,23,0.00,1,,233
2013-7-19,91,80,68,70,64,55,88,59,33,29.83,29.75,29.70,10,10,10,23,10,28,0.01,1,Rain,264
2013-7-20,73,68,60,61,58,52,88,70,53,30.01,29.91,29.82,10,10,10,9,4,,0.00,4,Rain,59
2013-7-21,69,61,53,59,54,50,94,77,60,30.03,29.99,29.92,10,10,7,12,4,,0.00,5,Rain,80
2013-7-22,86,70,53,70,62,52,100,77,45,29.92,29.77,29.64,10,10,2,15,4,21,0.00,4,Rain,204
2013-7-23,73,63,51,64,50,45,83,60,36,30.02,29.88,29.72,10,10,10,17,7,23,0.00,3,,357
2013-7-24,73,62,50,54,48,45,94,63,38,30.10,30.05,30.02,10,10,10,9,2,,0.00,3,,219
2013-7-25,80,66,53,64,57,50,100,72,44,30.05,30.00,29.93,10,10,3,16,5,22,0.15,4,Rain,208
2013-7-26,71,62,53,64,59,46,100,87,64,29.95,29.89,29.83,10,10,1,16,5,25,0.79,6,Rain,222
2013-7-27,60,54,48,52,45,41,100,75,55,29.94,29.89,29.84,10,10,5,14,7,18,0.07,8,Rain,311
2013-7-28,64,57,50,55,50,45,94,83,59,29.99,29.88,29.83,10,10,3,13,7,20,0.06,8,Rain,305
2013-7-29,73,63,53,57,52,48,94,72,53,30.16,30.10,30.00,10,10,10,12,6,17,0.00,5,,287
2013-7-30,71,61,51,63,58,52,100,86,64,30.20,30.14,30.08,10,9,1,7,1,,0.00,6,Rain,154
2013-7-31,78,70,62,64,62,57,100,82,47,30.09,30.00,29.93,10,10,5,14,5,21,0.10,4,Rain,254